[[{"header":{"parameterUnit":"m.s-1","parameterCategory":1,"la1":30.2991,"la2":30.254,"lo1":-89.0895,"lo2":-89.0444,"dy":0.0017,"dx":0.0017,"nx":28,"ny":28,"refTime":"2025-12-14T03:00:00:Z","depth":0,"parameterNumber":2,"parameterNumberName":"U-component_of_WINDS"},"data":[0,0,0,0,0,0,0,0,0,0,0,0,0,0,0,0,0,0,0,0,0,0,0,0,0,0,0,0,0,0,0,0,0,0,0,0,0,0,0,0,0,0,0,0,0,0,0,0,0,0,0,0,0,0,0,0,0,0,1.057,1.0571,0,1.0641,1.0642,1.0643,1.0651,1.065,1.065,1.0649,1.0725,1.0728,1.073,0,0,0,0,0,0,0,0,0,0,0,0,0,1.0446,1.0449,1.057,1.0571,1.0572,1.0641,1.0642,1.0643,1.0651,1.065,1.0649,1.0649,1.0724,1.0727,1.0731,0,0,0,0,0,0,0,0,0,0,0,0,0,1.0507,1.0449,1.057,1.0584,1.0586,1.0641,1.0642,1.0643,1.0651,1.065,1.0649,1.0648,1.0723,1.0727,1.0731,1.0778,0,0,1.0743,1.0745,0,0,0,0,0,0,0,0,1.0504,1.0512,1.0581,1.0583,1.0586,1.0636,1.0626,1.0688,1.0652,1.0627,1.0649,1.0648,1.0697,1.0703,1.0719,1.0781,1.0784,1.0744,1.0746,1.0748,1.0749,0,0,0,0,0,0,0,1.0499,1.0509,1.0598,1.0582,1.0585,1.0589,1.0596,1.0638,1.0667,1.0629,1.063,1.0638,1.0698,1.0715,1.072,1.0785,1.0744,1.0747,1.075,1.0751,1.0892,1.0893,0,0,0,0,0,0,1.0492,1.0505,1.0596,1.0601,1.0541,1.0592,1.06,1.0621,1.0666,1.0672,1.0639,1.0638,1.0708,1.0716,1.0723,1.0782,1.0748,1.0752,1.0754,1.0891,1.0892,1.0894,0,0,0,0,0,0,1.0489,1.05,1.0593,1.0553,1.0565,1.0595,1.0619,1.0623,1.064,1.0674,1.0679,1.065,1.0708,1.0717,1.0764,1.0785,1.0754,1.0757,1.0889,1.0891,1.0893,1.0899,0,0,0,0,0,0,1.0486,1.0499,1.0516,1.0553,1.0567,1.0632,1.062,1.0625,1.0647,1.0646,1.0686,1.0692,1.0708,1.0758,1.0768,1.079,1.076,1.0888,1.089,1.0893,1.0897,1.0901,1.0904,0,0,0,0,0,1.0481,1.0515,1.0516,1.0527,1.0589,1.0633,1.0641,1.0657,1.0648,1.0666,1.0688,1.0691,1.0781,1.0763,1.0774,1.0797,1.0886,1.0889,1.0892,1.0895,1.09,1.0904,0,0,0,0,0,0,1.048,1.052,1.0522,1.0569,1.0597,1.0634,1.0657,1.0661,1.0694,1.0692,1.0713,1.0722,1.0768,1.0787,1.0767,1.0846,1.0833,1.0838,1.0831,1.0836,1.0839,1.0834,1.0764,0,0,0,0,0,1.0484,1.0516,1.055,1.0588,1.0602,1.0627,1.0647,1.0657,1.0688,1.07,1.0726,1.0757,1.0792,1.0815,1.0849,1.09,1.091,1.0921,1.0925,1.0927,1.0932,1.0962,1.0968,1.0904,1.0904,1.0903,0,0,1.0495,1.0521,1.054,1.0588,1.0611,1.0645,1.0637,1.0672,1.0698,1.0706,1.0752,1.0772,1.0808,1.0857,1.088,1.0874,1.0952,1.0931,1.0933,1.0936,1.0966,1.0972,1.0977,1.0906,1.0905,1.0905,0,0,1.0532,1.0554,1.0589,1.0612,1.0647,1.0664,1.0673,1.0709,1.0723,1.0768,1.0776,1.0807,1.0867,1.0893,1.0914,1.0963,1.0967,1.0973,1.0992,1.1021,1.1026,1.1031,1.105,1.1056,1.0978,1.0978,1.0978,0,1.0541,1.059,1.0606,1.0642,1.0664,1.0672,1.0708,1.0731,1.0776,1.0791,1.0784,1.0861,1.0886,1.0942,1.0954,1.097,1.0982,1.0969,1.1024,1.1029,1.1033,1.1052,1.1058,1.0978,1.0978,1.0978,1.0978,0,1.0601,1.0635,1.0659,1.0702,1.0727,1.0762,1.0785,1.0808,1.0817,1.0835,1.0883,1.0913,1.0954,1.0969,1.0977,1.1027,1.1023,1.1019,1.1007,1.104,1.1057,1.1064,1.0979,1.0979,1.0979,1.0979,0,0,1.0638,1.069,1.0698,1.0718,1.0759,1.0786,1.0823,1.0863,1.0883,1.0915,1.0948,1.0999,1.0997,1.1021,1.1033,1.1058,1.1097,1.1052,1.1054,1.1061,1.1155,1.1158,1.1165,1.1099,1.1101,1.1102,1.1152,0,1.068,1.0745,1.0761,1.0817,1.085,1.0859,1.0892,1.0921,1.094,1.0972,1.0992,1.1029,1.1023,1.1037,1.1063,1.1086,1.1116,1.1083,1.1132,1.1133,1.1123,1.1174,1.1177,1.1223,1.1159,1.116,1.1161,0,1.0738,1.077,1.0829,1.0867,1.0881,1.091,1.0948,1.0978,1.1012,1.1024,1.1052,1.1061,1.1102,1.1088,1.1146,1.1123,1.1144,1.1159,1.1161,1.1167,1.115,1.1183,1.1238,1.1245,1.1172,1.1171,1.117,0,1.0761,1.0819,1.0862,1.0879,1.0923,1.0944,1.0963,1.0996,1.102,1.1054,1.107,1.1108,1.113,1.1161,1.1182,1.1169,1.1239,1.1225,1.1251,1.1251,1.1266,1.1265,1.1326,1.1278,1.1278,1.1277,1.1277,0,1.0807,1.0843,1.0873,1.09,1.0942,1.096,1.1002,1.1022,1.1051,1.1083,1.1094,1.1124,1.1149,1.1184,1.1201,1.1247,1.1256,1.1268,1.1273,1.1268,1.1267,1.1283,1.128,1.1279,1.1279,1.1279,1.1278,0,1.0839,1.086,1.0909,1.0947,1.0957,1.0987,1.102,1.1047,1.1066,1.1107,1.1118,1.1148,1.1189,1.1213,1.1265,1.1276,1.1328,1.1331,1.1317,1.1319,1.1344,1.1341,1.1418,1.143,1.1373,1.1373,1.1374,0,1.0867,1.0895,1.0937,1.0958,1.0978,1.1013,1.1037,1.1058,1.1083,1.1124,1.1147,1.1189,1.1223,1.1289,1.1317,1.1357,1.1361,1.1385,1.1367,1.1362,1.1363,1.1361,1.1365,1.1388,1.1389,1.1389,1.139,0,1.0916,1.0925,1.0958,1.0996,1.1024,1.1055,1.1086,1.1104,1.113,1.1158,1.1199,1.1226,1.1279,1.1321,1.1364,1.1386,1.1393,1.1395,1.1404,1.1399,1.1391,1.1397,1.1326,1.1393,1.1393,1.1393,1.1393,1.1392,1.0948,1.0974,1.1007,1.1045,1.107,1.1099,1.1127,1.1149,1.1184,1.1228,1.1239,1.1283,1.1319,1.1377,1.14,1.1437,1.1433,1.1444,1.1447,1.145,1.1452,1.1384,1.1444,1.1444,1.1444,1.1444,1.1444,0,1.0998,1.102,1.1054,1.1097,1.1127,1.113,1.1164,1.119,1.1228,1.126,1.1294,1.1343,1.1384,1.1415,1.1458,1.1481,1.1485,1.1492,1.1491,1.1496,1.1452,1.1441,1.1487,1.1487,1.1487,1.1487,1.1487,1.1487,1.1027,1.1072,1.1086,1.1144,1.1166,1.1209,1.1229,1.1256,1.1282,1.1336,1.137,1.1389,1.1422,1.1467,1.1506,1.1514,1.153,1.1536,1.1545,1.1503,1.1499,1.1494,1.1484,1.1539,1.1539,1.1586,1.1586,1.1586]},{"header":{"parameterUnit":"m.s-1","parameterCategory":1,"la1":30.2991,"la2":30.254,"lo1":-89.0895,"lo2":-89.0444,"dy":0.0017,"dx":0.0017,"nx":28,"ny":28,"refTime":"2025-12-14T03:00:00:Z","depth":0,"parameterNumber":3,"parameterNumberName":"V-component_of_WINDS"},"data":[0,0,0,0,0,0,0,0,0,0,0,0,0,0,0,0,0,0,0,0,0,0,0,0,0,0,0,0,0,0,0,0,0,0,0,0,0,0,0,0,0,0,0,0,0,0,0,0,0,0,0,0,0,0,0,0,0,0,-0.4362,-0.4362,0,-0.431,-0.431,-0.4309,-0.4282,-0.4282,-0.4282,-0.4282,-0.4226,-0.4224,-0.4223,0,0,0,0,0,0,0,0,0,0,0,0,0,-0.4436,-0.4435,-0.4362,-0.4362,-0.4361,-0.431,-0.431,-0.4309,-0.4282,-0.4282,-0.4282,-0.4282,-0.4226,-0.4224,-0.4223,0,0,0,0,0,0,0,0,0,0,0,0,0,-0.4396,-0.4434,-0.4362,-0.4342,-0.4339,-0.4311,-0.431,-0.4309,-0.4282,-0.4282,-0.4282,-0.4282,-0.4227,-0.4225,-0.4222,-0.4209,0,0,-0.4216,-0.4215,0,0,0,0,0,0,0,0,-0.4398,-0.4393,-0.4345,-0.4343,-0.434,-0.4303,-0.4315,-0.4275,-0.4282,-0.4304,-0.4282,-0.4282,-0.4251,-0.4247,-0.4237,-0.4207,-0.4204,-0.4215,-0.4214,-0.4213,-0.4212,0,0,0,0,0,0,0,-0.4401,-0.4395,-0.4342,-0.4345,-0.4342,-0.4334,-0.4328,-0.4307,-0.4278,-0.4302,-0.43,-0.4294,-0.425,-0.4239,-0.4236,-0.4203,-0.4215,-0.4213,-0.4212,-0.4211,-0.416,-0.416,0,0,0,0,0,0,-0.4408,-0.4398,-0.4343,-0.434,-0.437,-0.4333,-0.4326,-0.4315,-0.4278,-0.4273,-0.4294,-0.4293,-0.4243,-0.4238,-0.4233,-0.4216,-0.4213,-0.4211,-0.421,-0.416,-0.416,-0.416,0,0,0,0,0,0,-0.4409,-0.4403,-0.4345,-0.4368,-0.436,-0.4332,-0.4319,-0.4314,-0.4303,-0.4273,-0.4267,-0.4289,-0.4243,-0.4237,-0.4216,-0.4213,-0.421,-0.4208,-0.416,-0.416,-0.416,-0.4181,0,0,0,0,0,0,-0.4411,-0.4404,-0.4399,-0.4369,-0.4359,-0.4329,-0.4319,-0.4313,-0.43,-0.4298,-0.4266,-0.4261,-0.4242,-0.4219,-0.4214,-0.421,-0.4206,-0.416,-0.416,-0.416,-0.418,-0.4181,-0.4182,0,0,0,0,0,-0.4414,-0.4406,-0.4399,-0.4392,-0.4353,-0.4329,-0.4324,-0.4304,-0.43,-0.4295,-0.4275,-0.4262,-0.4215,-0.4217,-0.4211,-0.4207,-0.416,-0.416,-0.416,-0.4179,-0.4181,-0.4182,0,0,0,0,0,0,-0.4436,-0.4402,-0.4393,-0.4375,-0.4356,-0.4325,-0.4317,-0.4306,-0.4286,-0.4285,-0.4259,-0.4252,-0.4234,-0.4218,-0.4222,-0.4192,-0.4186,-0.4185,-0.4203,-0.4204,-0.4206,-0.421,-0.4204,0,0,0,0,0,-0.4439,-0.4423,-0.4394,-0.4381,-0.4372,-0.4347,-0.4335,-0.4322,-0.43,-0.4291,-0.4269,-0.4248,-0.4228,-0.4215,-0.4195,-0.4178,-0.417,-0.4172,-0.4173,-0.4174,-0.4173,-0.4162,-0.4163,-0.4159,-0.4159,-0.4159,0,0,-0.4444,-0.4424,-0.4415,-0.4385,-0.4368,-0.4352,-0.4339,-0.4323,-0.431,-0.4288,-0.4267,-0.4251,-0.4225,-0.4206,-0.4196,-0.4192,-0.4172,-0.4174,-0.4175,-0.4173,-0.4162,-0.4163,-0.4163,-0.4159,-0.4159,-0.4159,0,0,-0.4446,-0.4429,-0.4417,-0.44,-0.4375,-0.4359,-0.4356,-0.4327,-0.4316,-0.4295,-0.4278,-0.4262,-0.4228,-0.4211,-0.4197,-0.4193,-0.4181,-0.4188,-0.4194,-0.4184,-0.4184,-0.4184,-0.4182,-0.4182,-0.4187,-0.4187,-0.4187,0,-0.4456,-0.4431,-0.4411,-0.4396,-0.4383,-0.4363,-0.435,-0.4335,-0.4304,-0.4295,-0.4291,-0.4249,-0.423,-0.4207,-0.4206,-0.4196,-0.4191,-0.4191,-0.4186,-0.4185,-0.4185,-0.4183,-0.4183,-0.4188,-0.4188,-0.4187,-0.4187,0,-0.4444,-0.4428,-0.4421,-0.4393,-0.4379,-0.4365,-0.4342,-0.433,-0.4318,-0.4301,-0.428,-0.4257,-0.4232,-0.4226,-0.4213,-0.42,-0.4199,-0.4191,-0.4184,-0.4187,-0.4185,-0.4184,-0.4189,-0.4189,-0.4188,-0.4188,0,0,-0.4457,-0.442,-0.4417,-0.4405,-0.4376,-0.4362,-0.4347,-0.4324,-0.4314,-0.4294,-0.428,-0.4253,-0.4245,-0.423,-0.4215,-0.4207,-0.4205,-0.4199,-0.4198,-0.4201,-0.4189,-0.4195,-0.4195,-0.4197,-0.4196,-0.4196,-0.4191,0,-0.4455,-0.4428,-0.4409,-0.4389,-0.4373,-0.4355,-0.4341,-0.4322,-0.4306,-0.429,-0.4272,-0.4253,-0.4245,-0.4236,-0.4227,-0.4207,-0.4202,-0.4207,-0.4182,-0.4182,-0.4189,-0.4194,-0.42,-0.4196,-0.419,-0.419,-0.419,0,-0.4448,-0.443,-0.4408,-0.4382,-0.4374,-0.4363,-0.434,-0.4325,-0.4303,-0.4292,-0.4276,-0.4261,-0.4243,-0.4238,-0.4213,-0.4217,-0.4206,-0.4195,-0.4194,-0.4191,-0.4186,-0.419,-0.4195,-0.4194,-0.4188,-0.4189,-0.4189,0,-0.4459,-0.4429,-0.4412,-0.4402,-0.4371,-0.4363,-0.435,-0.4327,-0.4315,-0.4295,-0.4286,-0.4264,-0.4252,-0.4235,-0.4214,-0.4213,-0.4191,-0.4185,-0.4181,-0.4182,-0.4177,-0.4177,-0.418,-0.417,-0.417,-0.417,-0.417,0,-0.4458,-0.4446,-0.4417,-0.4407,-0.4392,-0.4371,-0.4357,-0.4342,-0.4322,-0.4308,-0.429,-0.4277,-0.425,-0.4234,-0.4217,-0.4199,-0.4193,-0.4184,-0.4179,-0.4185,-0.4186,-0.4177,-0.4176,-0.417,-0.417,-0.417,-0.417,0,-0.4468,-0.4449,-0.4429,-0.4402,-0.4395,-0.4385,-0.4361,-0.435,-0.4334,-0.4316,-0.431,-0.4285,-0.4264,-0.4242,-0.4214,-0.4203,-0.4185,-0.4179,-0.4193,-0.4191,-0.4188,-0.4189,-0.4184,-0.4183,-0.4175,-0.4175,-0.4176,0,-0.4469,-0.4459,-0.4431,-0.442,-0.4408,-0.4391,-0.4379,-0.4358,-0.4345,-0.4319,-0.4311,-0.429,-0.4271,-0.424,-0.4218,-0.4196,-0.4189,-0.4189,-0.4186,-0.4192,-0.4189,-0.4189,-0.4188,-0.419,-0.419,-0.419,-0.419,0,-0.4471,-0.4462,-0.4446,-0.4426,-0.4412,-0.4395,-0.4377,-0.4369,-0.4344,-0.4331,-0.4311,-0.4297,-0.4269,-0.4247,-0.4223,-0.4208,-0.4195,-0.4192,-0.419,-0.4195,-0.4204,-0.4199,-0.4196,-0.4192,-0.4192,-0.4192,-0.4192,-0.4192,-0.4476,-0.4467,-0.4446,-0.4428,-0.4412,-0.4396,-0.4385,-0.4368,-0.4351,-0.4327,-0.4315,-0.4295,-0.4272,-0.4239,-0.4224,-0.4207,-0.4203,-0.42,-0.42,-0.4199,-0.4201,-0.4207,-0.4203,-0.4203,-0.4203,-0.4203,-0.4203,0,-0.4477,-0.4463,-0.4447,-0.4424,-0.4409,-0.44,-0.438,-0.4368,-0.4351,-0.4332,-0.4314,-0.4291,-0.427,-0.4247,-0.4225,-0.4216,-0.4209,-0.4211,-0.4211,-0.4208,-0.4205,-0.4209,-0.4217,-0.4217,-0.4217,-0.4217,-0.4217,-0.4217,-0.4477,-0.446,-0.4449,-0.4424,-0.441,-0.4391,-0.438,-0.4365,-0.435,-0.4325,-0.4308,-0.4294,-0.4273,-0.4249,-0.423,-0.4223,-0.4216,-0.4219,-0.4211,-0.4209,-0.4208,-0.4207,-0.421,-0.4217,-0.4217,-0.4214,-0.4214,-0.4214]}]]